Roseburg, OR

5:57 PM PDT on September 26, 2016 (GMT -0700)
Roseburg Regional

Weather History for KRBG - May, 2013

Change the Weather History Date:

Friday, May 10, 2013

  Actual Average Record
Temperature  
Mean Temperature 71 °F 58 °F  
Max Temperature 87 °F 69 °F 94 °F (1931)
Min Temperature 55 °F 46 °F 34 °F (1953)
Degree Days  
Heating Degree Days 0 8  
Month to date heating degree days 13 86  
Since 1 July heating degree days 3461 3850  
Cooling Degree Days 6 0  
Month to date cooling degree days 18 0  
Year to date cooling degree days 20 1  
Growing Degree Days 20 (Base 50)    
Moisture  
Dew Point 53 °F    
Average Humidity 61    
Maximum Humidity 86    
Minimum Humidity 35    
Precipitation  
Precipitation 0.00 in 0.07 in 1.95 in (2005)
Month to date precipitation 0.14 0.79  
Year to date precipitation 6.30 16.15  
Sea Level Pressure  
Sea Level Pressure 30.16 in    
Wind  
Wind Speed 3 mph (NNW)    
Max Wind Speed 14 mph    
Max Gust Speed 20 mph    
Visibility 10 miles    
Events      
T = Trace of Precipitation, MM = Missing Value Source: NWS Daily Summary

Daily Weather History Graph

Daily Weather History Graph

Search for Another Location

Airport or City:

Trip Planner

Search our weather history database for the weather conditions in past years. The results will help you decide how hot, cold, wet, or windy it might be!

Date:

Astronomy

May. 10, 2013 Rise Set
Actual Time 5:54 AM PDT 8:25 PM PDT
Civil Twilight 5:22 AM PDT 8:57 PM PDT
Nautical Twilight 4:42 AM PDT 9:38 PM PDT
Astronomical Twilight 3:56 AM PDT 10:24 PM PDT
Moon 6:22 AM PDT (5/10) 9:20 PM PDT (5/10)
Length of Visible Light 15h 35m
Length of Day
14h 30m
New Moon, 1% of the Moon is Illuminated
May 10
New Moon
May 17
First Quarter
May 24
Full
May 31
Last Quarter
Jun 8
New

Hourly Weather History & Observations

Time (PDT) Temp. Heat Index Dew Point Humidity Pressure Visibility Wind Dir Wind Speed Gust Speed Precip Events Conditions
12:53 AM 62.1 °F - 51.1 °F 67% 30.15 in 10.0 mi Calm Calm - N/A   Clear
1:53 AM 61.0 °F - 51.1 °F 70% 30.17 in 10.0 mi Calm Calm - N/A   Clear
2:53 AM 59.0 °F - 51.1 °F 75% 30.17 in 10.0 mi Calm Calm - N/A   Clear
3:53 AM 57.9 °F - 51.1 °F 78% 30.17 in 10.0 mi Calm Calm - N/A   Clear
6:53 AM 55.9 °F - 51.1 °F 84% 30.19 in 10.0 mi Calm Calm - N/A   Clear
7:53 AM 60.1 °F - 52.0 °F 75% 30.20 in 10.0 mi Calm Calm - N/A   Clear
8:53 AM 63.0 °F - 51.1 °F 65% 30.19 in 10.0 mi Variable 3.5 mph - N/A   Clear
9:53 AM 66.0 °F - 53.1 °F 63% 30.18 in 10.0 mi Calm Calm - N/A   Clear
10:53 AM 70.0 °F - 54.0 °F 57% 30.17 in 10.0 mi Variable 3.5 mph - N/A   Clear
11:53 AM 75.0 °F - 55.0 °F 50% 30.16 in 10.0 mi Variable 3.5 mph - N/A   Clear
12:53 PM 78.1 °F - 55.9 °F 46% 30.14 in 10.0 mi Calm Calm - N/A   Clear
1:53 PM 82.9 °F 81.9 °F 54.0 °F 37% 30.12 in 9.0 mi Variable 3.5 mph - N/A   Clear
2:53 PM 86.0 °F 84.7 °F 55.9 °F 36% 30.10 in 10.0 mi Variable 5.8 mph - N/A   Clear
3:53 PM 86.0 °F 84.9 °F 57.0 °F 37% 30.09 in 10.0 mi NNW 8.1 mph - N/A   Clear
4:53 PM 84.0 °F 83.0 °F 55.9 °F 38% 30.10 in 10.0 mi NNW 12.7 mph 18.4 mph N/A   Clear
5:53 PM 82.9 °F 81.8 °F 53.1 °F 36% 30.11 in 10.0 mi NNW 9.2 mph - N/A   Clear
6:53 PM 78.1 °F - 54.0 °F 43% 30.13 in 10.0 mi NNW 6.9 mph - N/A   Clear
7:53 PM 75.0 °F - 51.1 °F 43% 30.15 in 10.0 mi NNW 3.5 mph - N/A   Clear
8:53 PM 71.1 °F - 52.0 °F 51% 30.19 in 10.0 mi North 6.9 mph - N/A   Clear
9:53 PM 69.1 °F - 52.0 °F 54% 30.20 in 10.0 mi North 4.6 mph - N/A   Clear
10:53 PM 66.9 °F - 53.1 °F 61% 30.20 in 10.0 mi North 3.5 mph - N/A   Clear
11:53 PM 66.0 °F - 52.0 °F 60% 30.21 in 10.0 mi Calm Calm - N/A   Clear